FW2458 Weather Reports


Display with metric or nautical units.
time (UTC)temp
F
wind
direction
speed
MPH
gust
MPH
rain 1hr
in
rain 24hr
in
rain mn
in
humidity
%
barometer
mb
20260901045844 70 97 0.0 0.0 0.06 0.12 0.06 94 1017.5
20260901045602 70 97 0.0 0.0 0.06 0.12 0.06 94 1017.5
20260901044844 70 97 0.0 0.0 0.07 0.12 0.06 94 1017.5
20260901044339 70 97 0.0 0.0 0.07 0.12 0.06 94 1017.6
20260901043840 70 97 0.0 0.0 0.07 0.12 0.06 94 1017.5
20260901043338 70 97 0.0 0.0 0.06 0.11 0.05 94 1017.6
20260901043110 70 97 0.0 0.0 0.05 0.10 0.04 94 1017.6
20260901042339 70 97 0.0 0.0 0.05 0.10 0.04 94 1017.6
20260901041840 70 97 0.0 0.0 0.05 0.10 0.04 94 1017.5
20260901041609 70 97 0.0 0.0 0.05 0.10 0.04 94 1017.7
20260901040840 70 97 0.0 0.0 0.05 0.09 0.04 94 1017.7
20260901040336 70 97 0.0 0.0 0.02 0.06 0.01 94 1017.6
20260901035835 70 97 0.0 0.0 0.03 0.06 0.06 93 1017.6
20260901035336 70 97 0.0 0.0 0.04 0.06 0.06 93 1017.7
20260901034834 70 97 0.0 0.0 0.04 0.05 0.05 93 1017.6
20260901034336 70 97 0.0 0.0 0.04 0.05 0.05 93 1017.7
20260901033836 70 97 0.0 0.0 0.04 0.05 0.05 93 1017.7
20260901033334 70 97 0.0 0.0 0.04 0.05 0.05 93 1017.6
20260901032836 70 97 0.0 0.0 0.04 0.05 0.05 92 1017.8
20260901032334 70 97 0.0 0.0 0.04 0.05 0.05 92 1017.8
20260901032057 70 97 0.0 0.0 0.04 0.05 0.05 92 1017.8
20260901031334 70 97 0.0 0.0 0.04 0.05 0.05 92 1017.8
20260901030835 70 97 0.0 1.0 0.03 0.04 0.05 92 1017.8
20260901030335 71 97 0.0 1.0 0.03 0.04 0.04 92 1018.0
20260901025836 71 97 0.0 1.0 0.02 0.03 0.03 92 1018.0
20260901025601 71 97 0.0 1.0 0.01 0.02 0.02 92 1018.0
20260901024835 71 97 0.0 0.0 0.00 0.01 0.01 92 1018.0
20260901024819 71 97 0.0 0.0 0.00 0.01 0.01 92 1018.1
20260901023826 71 97 0.0 0.0 0.00 0.01 0.01 92 1018.2
20260901023320 71 97 0.0 0.0 0.00 0.01 0.01 92 1018.2
20260901022814 71 97 0.0 0.0 0.00 0.01 0.01 92 1018.3
20260901022306 71 97 0.0 0.0 0.00 0.01 0.01 92 1018.4
20260901021758 71 97 0.0 0.0 0.00 0.01 0.01 92 1018.5
20260901021532 71 97 0.0 0.0 0.00 0.01 0.01 92 1018.5
20260901020742 71 97 0.0 0.0 0.00 0.01 0.01 92 1018.4
20260901020236 71 97 0.0 0.0 0.00 0.01 0.01 92 1018.4
20260901015730 71 97 0.0 0.0 0.00 0.01 0.01 92 1018.4
20260901015220 71 97 0.0 0.0 0.00 0.01 0.01 92 1018.3
20260901014906 71 97 0.0 0.0 0.00 0.01 0.01 91 1018.3
20260901014801 71 97 0.0 0.0 0.00 0.01 0.01 92 1018.3
20260901014144 71 97 0.0 0.0 0.00 0.01 0.01 91 1018.4
20260901013152 71 97 0.0 0.0 0.00 0.01 0.01 91 1018.4
20260901012645 71 97 0.0 0.0 0.00 0.01 0.01 91 1018.4
20260901012136 71 97 0.0 0.0 0.00 0.01 0.01 91 1018.4
20260901011644 71 97 0.0 0.0 0.00 0.02 0.01 91 1018.4
20260901011124 71 97 0.0 0.0 0.00 0.02 0.01 91 1018.4
20260901010614 71 97 0.0 0.0 0.00 0.02 0.01 90 1018.4
20260901010332 71 97 0.0 0.0 0.00 0.02 0.01 90 1018.3
20260901005601 71 97 0.0 0.0 0.00 0.02 0.01 90 1018.3
20260901005052 72 97 0.0 0.0 0.00 0.02 0.01 89 1018.2
20260901004546 72 97 0.0 0.0 0.00 0.02 0.01 89 1018.2
20260901004040 72 97 0.0 0.0 0.00 0.02 0.01 89 1018.2
20260901003530 72 97 0.0 0.0 0.00 0.03 0.01 89 1018.3
20260901003024 72 97 0.0 0.0 0.00 0.03 0.01 89 1018.2
20260901002518 72 97 0.0 0.0 0.00 0.03 0.01 89 1018.0
20260901002008 72 97 0.0 0.0 0.00 0.03 0.01 88 1018.0
20260901001721 72 97 0.0 0.0 0.00 0.03 0.01 88 1018.1
20260901000956 72 97 0.0 0.0 0.00 0.03 0.01 88 1018.1
20260901000446 72 97 0.0 0.0 0.00 0.03 0.01 87 1018.0
20260831235940 72 97 0.0 0.0 0.00 0.03 0.01 87 1018.0
20260831235434 73 97 0.0 0.0 0.00 0.03 0.01 87 1018.2
20260831234924 73 97 0.0 0.0 0.00 0.03 0.01 87 1018.2
20260831234418 73 97 0.0 0.0 0.00 0.03 0.01 87 1018.3
20260831233912 73 97 0.0 0.0 0.00 0.03 0.01 86 1018.3
20260831233402 73 97 0.0 0.0 0.00 0.03 0.01 86 1018.2
20260831232856 73 97 0.0 0.0 0.00 0.03 0.01 86 1018.2
20260831232350 73 97 0.0 0.0 0.00 0.03 0.01 86 1018.3
20260831231848 73 98 0.0 0.0 0.00 0.03 0.01 86 1018.3
20260831231334 73 98 0.0 0.0 0.00 0.03 0.01 86 1018.3
20260831230828 73 98 0.0 0.0 0.00 0.03 0.01 86 1018.4
20260831230319 74 98 0.0 0.0 0.00 0.03 0.01 86 1018.3
20260831225812 74 98 0.0 0.0 0.00 0.03 0.01 85 1018.4
20260831225306 74 98 0.0 0.0 0.00 0.03 0.01 85 1018.4
20260831224801 74 98 0.0 0.0 0.00 0.03 0.01 85 1018.4
20260831224302 74 98 0.0 0.0 0.00 0.03 0.01 85 1018.5
20260831223800 74 98 0.0 0.0 0.00 0.03 0.01 84 1018.5
20260831223259 74 98 0.0 2.0 0.00 0.03 0.01 84 1018.4
20260831222757 74 98 0.0 2.0 0.00 0.03 0.01 84 1018.4
20260831222255 74 98 0.0 2.0 0.00 0.03 0.01 83 1018.4
20260831221752 74 98 0.0 2.0 0.00 0.03 0.01 82 1018.4
20260831221252 74 98 0.0 1.0 0.00 0.03 0.01 82 1018.5
20260831220751 74 98 0.0 0.0 0.00 0.03 0.01 83 1018.5
20260831220254 74 98 0.0 0.0 0.00 0.03 0.01 81 1018.6
20260831220229 74 98 0.0 0.0 0.00 0.03 0.01 82 1018.4
20260831215252 74 98 0.0 0.0 0.00 0.03 0.01 82 1018.5
20260831215009 74 98 0.0 0.0 0.00 0.03 0.01 81 1018.5
20260831214248 75 98 0.0 0.0 0.00 0.03 0.01 81 1018.6
20260831213746 75 98 0.0 0.0 0.00 0.03 0.01 81 1018.7
20260831213514 75 98 0.0 1.0 0.00 0.03 0.01 81 1018.5
20260831212741 75 98 0.0 1.0 0.00 0.03 0.01 81 1018.7
20260831212242 75 98 0.0 1.0 0.00 0.03 0.01 81 1018.8
20260831211744 74 98 0.0 1.0 0.00 0.03 0.01 81 1018.8
20260831211512 75 98 0.0 1.0 0.00 0.03 0.01 82 1018.7
20260831210742 75 98 0.0 1.0 0.00 0.03 0.01 82 1018.7
20260831210509 75 98 0.0 1.0 0.00 0.03 0.01 82 1018.9
20260831205743 74 98 0.0 1.0 0.00 0.03 0.01 82 1018.8
20260831205241 75 98 0.0 1.0 0.00 0.03 0.01 82 1019.0
20260831204738 75 98 0.0 0.0 0.00 0.03 0.01 82 1019.0
20260831204239 74 98 0.0 2.0 0.00 0.03 0.01 83 1019.0
20260831203958 74 98 0.0 2.0 0.00 0.03 0.01 83 1019.0
20260831203238 74 98 0.0 4.0 0.00 0.03 0.01 84 1019.0
20260831202737 74 98 1.0 4.0 0.01 0.03 0.01 85 1019.0
20260831202238 74 205 1.0 4.0 0.01 0.03 0.01 85 1018.9
20260831201738 74 207 1.0 4.0 0.01 0.03 0.01 86 1018.9
20260831201233 73 209 0.0 3.0 0.01 0.03 0.01 88 1018.9
20260831200727 73 209 0.0 3.0 0.01 0.03 0.01 87 1018.9
20260831200225 73 209 0.0 1.0 0.01 0.03 0.01 87 1019.0
20260831195725 73 209 0.0 2.0 0.01 0.03 0.01 87 1019.2
20260831195223 73 209 0.0 2.0 0.01 0.03 0.01 87 1019.3
20260831194723 73 210 0.0 2.0 0.01 0.03 0.01 86 1019.5
20260831194223 73 210 0.0 2.0 0.01 0.03 0.01 85 1019.7
20260831193721 73 40 0.0 2.0 0.01 0.03 0.01 85 1019.7
20260831193438 73 40 0.0 0.0 0.01 0.03 0.01 85 1019.6
20260831192717 73 40 0.0 0.0 0.00 0.02 0.00 83 1019.7
20260831192219 74 40 0.0 0.0 0.00 0.02 0.00 82 1019.7
20260831191713 74 40 0.0 0.0 0.00 0.02 0.00 82 1019.7
20260831191209 74 40 0.0 0.0 0.00 0.02 0.00 82 1019.6
20260831190709 75 40 0.0 0.0 0.00 0.02 0.00 80 1019.7
20260831190211 75 40 0.0 0.0 0.00 0.02 0.00 78 1019.8
20260831185709 75 40 0.0 0.0 0.00 0.02 0.00 77 1019.7
20260831185207 76 40 0.0 0.0 0.00 0.02 0.00 76 1019.8
20260831184710 76 40 0.0 0.0 0.00 0.02 0.00 76 1019.8
20260831184204 77 40 0.0 0.0 0.00 0.02 0.00 74 1019.8
20260831183704 78 40 0.0 0.0 0.00 0.02 0.00 73 1019.9
20260831183202 78 40 0.0 0.0 0.00 0.02 0.00 73 1019.8
20260831182702 78 40 0.0 0.0 0.00 0.02 0.00 72 1019.7
20260831182424 78 40 0.0 0.0 0.00 0.02 0.00 72 1019.7
20260831181701 78 40 0.0 0.0 0.00 0.02 0.00 72 1019.8
20260831181430 78 40 0.0 3.0 0.00 0.02 0.00 71 1019.8
20260831180657 78 40 0.0 3.0 0.00 0.02 0.00 68 1019.8
20260831180158 78 40 0.0 3.0 0.00 0.02 0.00 67 1019.8
20260831175658 79 40 1.0 3.0 0.00 0.02 0.00 66 1020.0
20260831175157 79 40 0.0 3.0 0.00 0.02 0.00 67 1020.1
20260831174657 79 40 0.0 3.0 0.00 0.02 0.00 66 1020.2
20260831174154 79 36 1.0 4.0 0.00 0.02 0.00 68 1020.2
20260831173917 78 36 1.0 4.0 0.00 0.02 0.00 68 1020.1
20260831173157 78 60 1.0 4.0 0.00 0.02 0.00 68 1020.1
20260831172907 79 60 2.0 4.0 0.00 0.02 0.00 69 1020.1
20260831172402 79 131 1.0 4.0 0.00 0.02 0.00 70 1020.1
20260831171635 79 184 1.0 4.0 0.00 0.02 0.00 68 1020.1
20260831171139 79 72 1.0 4.0 0.00 0.02 0.00 67 1020.0
20260831170636 79 172 1.0 4.0 0.00 0.02 0.00 67 1020.1
20260831170402 79 173 1.0 4.0 0.00 0.02 0.00 66 1020.3
20260831165900 79 130 1.0 3.0 0.00 0.02 0.00 67 1020.1
20260831165139 79 130 1.0 4.0 0.00 0.02 0.00 66 1020.2
20260831164636 79 160 1.0 4.0 0.00 0.02 0.00 65 1020.3
20260831164137 79 158 1.0 4.0 0.00 0.02 0.00 68 1020.1
20260831163635 79 161 1.0 5.0 0.00 0.02 0.00 69 1020.1
20260831163131 78 49 1.0 5.0 0.00 0.02 0.00 70 1020.1
20260831162631 78 49 1.0 5.0 0.00 0.02 0.00 69 1020.2
20260831162131 78 46 2.0 5.0 0.00 0.02 0.00 68 1020.2
20260831161632 79 53 1.0 5.0 0.00 0.02 0.00 68 1020.2
20260831161132 79 198 1.0 5.0 0.00 0.02 0.00 70 1020.2
20260831160629 78 191 1.0 5.0 0.00 0.02 0.00 72 1020.4
20260831160130 78 208 1.0 5.0 0.00 0.02 0.00 69 1020.3
20260831155630 78 246 1.0 4.0 0.00 0.02 0.00 71 1020.3
20260831155130 77 43 1.0 4.0 0.00 0.02 0.00 73 1020.4
20260831154629 77 43 1.0 4.0 0.00 0.02 0.00 73 1020.8
20260831154130 77 43 1.0 4.0 0.00 0.02 0.00 73 1020.7
20260831153631 76 43 2.0 4.0 0.00 0.02 0.00 73 1020.6
20260831153129 76 51 1.0 4.0 0.00 0.02 0.00 73 1020.7
20260831152629 76 65 1.0 5.0 0.00 0.02 0.00 75 1020.7
20260831152129 75 53 1.0 5.0 0.00 0.02 0.00 74 1020.5
20260831151631 75 46 2.0 5.0 0.00 0.02 0.00 76 1020.8
20260831151127 75 37 2.0 5.0 0.00 0.02 0.00 74 1020.8
20260831150846 75 34 2.0 5.0 0.00 0.02 0.00 74 1020.8
20260831150343 76 61 1.0 5.0 0.00 0.02 0.00 75 1020.8
20260831145626 76 61 1.0 3.0 0.00 0.02 0.00 74 1020.8
20260831145614 76 109 1.0 5.0 0.00 0.02 0.00 74 1020.8
20260831144621 76 65 2.0 5.0 0.00 0.02 0.00 73 1020.8
20260831144129 76 77 1.0 5.0 0.00 0.02 0.00 76 1020.8
20260831143625 76 225 1.0 5.0 0.00 0.02 0.00 74 1020.8
20260831143121 75 80 1.0 4.0 0.00 0.02 0.00 75 1020.9
20260831142619 75 85 1.0 5.0 0.00 0.02 0.00 75 1020.9
20260831142121 75 14 1.0 5.0 0.00 0.02 0.00 75 1020.9
20260831141615 75 53 1.0 5.0 0.00 0.02 0.00 77 1020.9
20260831141109 75 59 1.0 3.0 0.00 0.02 0.00 77 1020.9
20260831140600 74 59 1.0 3.0 0.00 0.02 0.00 78 1020.8
20260831140053 74 28 1.0 4.0 0.00 0.02 0.00 80 1020.7
20260831135546 73 63 1.0 4.0 0.00 0.02 0.00 80 1020.7
20260831135531 73 63 1.0 6.0 0.00 0.02 0.00 81 1020.8
20260831134530 72 63 1.0 6.0 0.00 0.02 0.00 82 1020.7
20260831134023 72 66 1.0 6.0 0.00 0.02 0.00 81 1020.7
20260831133514 72 66 1.0 6.0 0.00 0.02 0.00 81 1020.6
20260831133007 72 63 1.0 4.0 0.00 0.02 0.00 81 1020.6
20260831132502 72 41 1.0 4.0 0.00 0.02 0.00 81 1020.6
20260831131951 72 47 1.0 4.0 0.00 0.02 0.00 83 1020.4
20260831131446 71 49 1.0 4.0 0.00 0.02 0.00 82 1020.6
20260831131205 71 54 1.0 3.0 0.00 0.02 0.00 83 1020.5
20260831130430 71 54 1.0 3.0 0.00 0.02 0.00 83 1020.5
20260831130144 71 53 1.0 3.0 0.00 0.02 0.00 83 1020.5
20260831125417 71 44 1.0 4.0 0.00 0.02 0.00 84 1020.7
20260831124908 70 30 1.0 4.0 0.00 0.02 0.00 86 1020.7
20260831124402 70 191 1.0 4.0 0.00 0.02 0.00 86 1020.7
20260831123855 69 192 0.0 4.0 0.00 0.02 0.00 87 1020.8
20260831123345 69 78 0.0 2.0 0.00 0.02 0.00 88 1020.6
20260831122839 69 147 0.0 2.0 0.00 0.02 0.00 89 1020.6
20260831122333 68 84 0.0 1.0 0.00 0.02 0.00 89 1020.6
20260831121823 68 84 0.0 1.0 0.00 0.02 0.00 89 1020.6
20260831121543 68 84 0.0 1.0 0.00 0.02 0.00 90 1020.6
20260831120810 68 84 0.0 1.0 0.00 0.02 0.00 90 1020.6
20260831120302 67 84 0.0 1.0 0.00 0.02 0.00 90 1020.5
20260831115755 67 84 0.0 1.0 0.00 0.02 0.00 90 1020.4
20260831115249 67 84 0.0 1.0 0.00 0.02 0.00 90 1020.4
20260831114739 67 84 0.0 1.0 0.00 0.02 0.00 90 1020.4
20260831114235 67 84 0.0 1.0 0.00 0.02 0.00 90 1020.3
20260831113727 67 84 0.0 1.0 0.00 0.02 0.00 90 1020.3
20260831113217 67 84 0.0 0.0 0.00 0.02 0.00 91 1020.4
20260831113203 67 84 0.0 0.0 0.00 0.02 0.00 90 1020.3
20260831112205 67 84 0.0 0.0 0.00 0.02 0.00 90 1020.3
20260831111655 67 84 0.0 0.0 0.00 0.02 0.00 90 1020.1
20260831111154 67 84 0.0 0.0 0.00 0.02 0.00 89 1020.1
20260831110649 67 84 0.0 2.0 0.00 0.02 0.00 89 1020.1
20260831110147 67 84 0.0 2.0 0.00 0.02 0.00 89 1019.9
20260831105648 67 84 0.0 2.0 0.00 0.02 0.00 89 1020.0
20260831105145 67 84 0.0 2.0 0.00 0.02 0.00 89 1019.9
20260831104646 67 82 0.0 1.0 0.00 0.02 0.00 89 1020.0
20260831104146 67 82 0.0 1.0 0.00 0.02 0.00 89 1020.1
20260831103920 67 82 0.0 3.0 0.00 0.02 0.00 88 1020.0
20260831103145 67 82 0.0 3.0 0.00 0.02 0.00 88 1020.0
20260831102649 67 82 0.0 3.0 0.00 0.02 0.00 88 1020.0
20260831102146 67 82 0.0 3.0 0.00 0.02 0.00 88 1019.8
20260831101645 67 79 0.0 2.0 0.00 0.02 0.00 88 1019.6
20260831101146 67 88 0.0 2.0 0.00 0.02 0.00 88 1019.7
20260831100645 67 27 0.0 2.0 0.00 0.02 0.00 88 1019.5
20260831100147 67 296 0.0 2.0 0.00 0.02 0.00 87 1019.3
20260831095640 67 291 0.0 2.0 0.00 0.02 0.00 87 1019.3
20260831095135 67 278 0.0 2.0 0.00 0.02 0.00 87 1019.3
20260831094636 67 248 0.0 1.0 0.00 0.02 0.00 88 1019.4
20260831094139 67 249 0.0 0.0 0.00 0.02 0.00 88 1019.3
20260831093639 67 249 0.0 0.0 0.00 0.02 0.00 88 1019.3
20260831092634 67 249 0.0 1.0 0.00 0.02 0.00 88 1019.1
20260831092135 68 249 0.0 1.0 0.00 0.02 0.00 87 1019.1
20260831091632 68 249 0.0 1.0 0.00 0.02 0.00 87 1019.1
20260831091131 68 249 0.0 1.0 0.00 0.02 0.00 87 1018.9
20260831090630 68 249 0.0 0.0 0.00 0.02 0.00 87 1018.9
20260831090129 68 249 0.0 0.0 0.00 0.02 0.00 87 1019.0
20260831085626 68 249 0.0 0.0 0.00 0.02 0.00 86 1019.1
20260831085123 68 249 0.0 1.0 0.00 0.02 0.00 86 1019.1
20260831084620 68 249 0.0 1.0 0.00 0.02 0.00 86 1019.0
20260831084347 68 249 0.0 1.0 0.00 0.02 0.00 85 1019.1
20260831083618 68 249 0.0 1.0 0.00 0.02 0.00 85 1019.1
20260831083116 69 248 0.0 1.0 0.00 0.02 0.00 86 1019.1
20260831082616 69 248 0.0 1.0 0.00 0.02 0.00 86 1019.1
20260831082113 69 248 0.0 1.0 0.00 0.02 0.00 86 1019.2
20260831081611 69 248 0.0 1.0 0.00 0.02 0.00 86 1019.3
20260831081110 69 248 0.0 1.0 0.00 0.02 0.00 86 1019.2
20260831080610 69 248 0.0 1.0 0.00 0.02 0.00 86 1019.2
20260831080108 69 248 0.0 1.0 0.00 0.02 0.00 86 1019.0
20260831075607 68 248 0.0 1.0 0.00 0.02 0.00 86 1018.9
20260831075327 68 248 0.0 1.0 0.00 0.02 0.00 86 1018.8
20260831074602 68 248 0.0 1.0 0.00 0.02 0.00 87 1018.9
20260831074059 68 240 0.0 1.0 0.00 0.02 0.00 88 1019.1
20260831073558 68 241 0.0 1.0 0.00 0.02 0.00 89 1019.1
20260831073544 68 241 0.0 1.0 0.00 0.02 0.00 90 1019.0
20260831072554 68 121 0.0 0.0 0.00 0.02 0.00 90 1019.0
20260831072051 68 121 0.0 0.0 0.00 0.02 0.00 90 1019.0
20260831071550 68 121 0.0 0.0 0.00 0.02 0.00 90 1019.0
20260831071048 68 121 0.0 0.0 0.00 0.02 0.00 90 1019.0
20260831070545 68 121 0.0 0.0 0.00 0.02 0.00 89 1019.0
20260831070048 68 121 0.0 0.0 0.00 0.02 0.00 89 1018.9
20260831065537 68 121 0.0 0.0 0.00 0.02 0.00 89 1018.9
20260831065031 68 121 0.0 0.0 0.00 0.02 0.00 90 1019.1
20260831064525 68 121 0.0 0.0 0.00 0.02 0.00 90 1019.2
20260831064024 68 121 0.0 0.0 0.00 0.02 0.00 90 1019.3
20260831063521 68 121 0.0 0.0 0.00 0.02 0.00 90 1019.4
20260831063020 68 121 0.0 0.0 0.00 0.02 0.00 91 1019.3
20260831062516 68 121 0.0 0.0 0.00 0.02 0.00 90 1019.3
20260831062016 68 121 0.0 0.0 0.00 0.02 0.00 90 1019.2
20260831061513 67 121 0.0 0.0 0.00 0.02 0.00 91 1019.2
20260831061014 67 121 0.0 0.0 0.00 0.02 0.00 91 1019.2
20260831060512 67 121 0.0 0.0 0.00 0.02 0.00 91 1019.1
20260831060015 67 121 0.0 0.0 0.00 0.02 0.00 92 1018.9
20260831055508 67 121 0.0 0.0 0.00 0.02 0.00 92 1019.1
20260831055007 67 121 0.0 0.0 0.00 0.02 0.00 92 1019.2
20260831054504 67 121 0.0 0.0 0.00 0.02 0.00 92 1019.1
20260831054006 67 121 0.0 0.0 0.00 0.02 0.00 92 1019.3
20260831053500 67 121 0.0 0.0 0.00 0.02 0.00 92 1019.3
20260831053000 67 121 0.0 0.0 0.00 0.02 0.00 92 1019.4
20260831052502 67 121 0.0 0.0 0.00 0.02 0.00 92 1019.4
20260831052217 67 121 0.0 0.0 0.00 0.02 0.00 92 1019.5
20260831051455 67 121 0.0 0.0 0.00 0.02 0.00 92 1019.4
20260831051212 67 121 0.0 0.0 0.00 0.02 0.00 92 1019.3
20260831050508 67 121 0.0 0.0 0.00 0.02 0.00 93 1019.1
20260831045953 68 121 0.0 0.0 0.00 0.02 0.00 93 1019.1